RH
77 78 79 80 79 79 79 78 79 80 80 81 82 86 87 88 82 37 16 21 26 87 72 23 20 20 20 23 19 15 25 20 13 15 16 16 18 18 18 24 23 22 29 29 30
77 78 79 79 79 79 80 79 79 79 80 82 84 83 86 88 28 12 30 63 83 84 28 20 19 18 18 20 17 18 35 16 12 12 15 15 16 19 21 24 26 24 26 30 31
77 78 79 79 79 79 79 80 80 80 81 82 83 83 86 70 18 8 63 70 80 69 13 13 13 15 17 14 15 14 34 15 12 12 13 15 14 17 20 24 24 28 31 32 32
77 77 78 78 78 78 78 80 81 82 82 82 82 82 83 29 14 13 65 69 80 26 15 12 11 16 16 14 12 17 16 10 12 11 13 15 13 15 18 17 19 23 28 30 32
77 78 78 78 78 78 80 83 84 83 82 81 81 81 48 16 10 16 68 58 23 18 17 10 11 10 14 8 10 14 13 11 11 12 12 14 15 15 17 16 17 22 28 29 29
78 79 80 79 80 79 82 84 85 82 82 82 81 83 31 14 5 10 9 18 11 11 9 8 7 7 7 8 10 12 12 11 11 12 13 14 16 16 19 17 19 25 28 27 26
79 82 83 82 79 76 81 84 82 82 82 84 81 56 17 12 4 5 8 8 7 8 7 5 5 5 6 7 7 10 13 13 12 12 13 14 19 18 19 19 21 25 25 25 25
80 81 83 83 83 82 83 84 83 81 85 85 81 40 16 6 6 5 5 6 6 7 6 5 4 5 6 6 8 11 12 14 12 12 14 15 22 20 20 20 21 24 25 25 26
82 83 82 84 82 82 82 84 80 78 78 78 51 29 15 20 9 6 6 6 7 6 7 5 4 5 6 7 10 11 14 13 15 12 16 17 56 18 20 20 21 22 24 25 26
82 83 83 82 82 82 83 84 60 78 67 40 29 25 14 9 8 8 8 7 7 7 8 7 5 6 8 8 14 15 14 12 18 13 17 18 21 19 20 20 20 21 22 25 25
82 83 83 83 82 82 61 13 22 35 30 18 14 11 8 7 8 8 8 8 7 7 8 6 6 8 9 9 10 11 12 14 12 11 16 18 18 19 20 21 20 20 22 22 23
82 83 83 83 82 79 51 11 11 10 11 6 7 7 8 7 9 8 8 8 9 9 7 7 8 6 7 7 9 10 12 12 10 13 14 17 18 16 19 22 20 20 21 21 20
82 83 84 84 77 50 10 13 10 8 10 7 5 5 5 5 8 7 8 7 8 9 6 6 5 4 7 8 10 10 11 12 11 15 15 16 19 17 16 18 20 19 18 19 20
83 83 83 82 43 14 12 13 9 8 13 7 7 5 5 5 7 6 6 7 7 8 6 5 4 5 6 8 8 11 9 9 10 22 20 15 21 19 16 17 19 20 19 17 19
84 84 83 83 36 19 10 9 8 11 18 8 8 6 6 7 6 6 5 8 9 8 7 6 5 5 7 7 8 10 8 10 10 15 20 16 17 17 15 17 15 17 19 18 16
84 84 83 32 25 19 12 11 10 17 18 9 8 10 10 8 7 7 6 7 7 8 7 6 4 4 4 5 6 7 9 10 10 11 22 17 22 16 21 16 14 15 16 18 16
84 85 71 38 20 12 11 11 12 15 9 9 9 8 10 10 10 10 9 9 11 14 12 8 6 4 4 6 6 7 10 15 17 16 17 18 19 29 12 13 12 12 13 15 16
85 79 47 23 20 19 19 13 19 10 10 6 6 8 9 7 8 10 10 9 9 9 9 10 11 6 5 6 7 8 9 14 25 18 14 12 19 14 11 10 11 10 9 12 16
82 24 18 14 18 19 20 13 13 11 7 7 7 9 10 7 6 9 11 9 8 8 12 11 11 6 5 5 5 7 10 7 11 11 13 12 13 12 12 10 11 11 9 9 13
50 33 19 14 22 24 23 22 10 7 6 6 10 9 10 8 8 8 10 8 8 7 7 9 13 7 5 5 4 5 6 10 10 23 23 13 15 15 15 14 12 11 9 8 9
48 20 21 18 23 32 30 17 13 8 6 6 8 9 8 9 8 9 8 8 7 7 7 7 10 10 8 8 7 6 6 8 8 11 17 17 14 10 14 13 12 10 9 8 7
30 26 20 20 29 23 23 19 22 10 7 6 6 8 10 8 8 9 10 8 6 6 8 8 9 13 10 6 5 5 6 7 13 20 13 13 12 7 8 9 9 9 8 7 7
38 26 13 16 26 17 17 14 12 11 10 9 7 6 7 9 13 9 9 6 7 8 10 8 11 15 14 8 7 8 7 5 6 8 21 16 13 9 8 9 9 9 9 9 9
45 32 17 21 21 19 19 20 20 14 11 11 11 8 7 9 10 12 9 7 7 8 45 21 10 16 14 15 9 11 8 6 5 10 13 13 14 11 10 11 10 10 9 9 10
48 34 36 42 24 44 38 37 38 42 30 17 16 12 9 11 10 10 9 9 7 23 13 12 19 13 11 10 9 7 7 6 8 8 12 12 13 12 11 10 11 10 10 10 10
89 58 39 36 34 36 36 28 21 19 28 35 27 18 14 13 11 11 9 11 12 9 11 12 20 18 16 11 11 11 6 6 6 6 8 8 10 9 9 9 11 10 10 10 10
56 59 64 47 36 36 30 32 23 24 32 33 41 58 48 26 21 19 15 8 9 12 15 16 15 20 21 14 13 14 11 9 8 7 7 9 10 9 9 10 11 15 12 12 11
Wind_Speed
21 21 21 21 22 22 21 22 22 22 21 21 19 19 19 19 21 9 13 5 6 18 8 15 15 14 15 15 17 11 5 12 7 11 15 10 11 7 11 12 10 6 19 21 21
21 22 22 22 22 22 22 21 21 22 22 22 20 19 19 18 16 20 6 10 18 17 17 18 17 15 14 16 14 13 5 8 7 13 16 10 11 11 12 14 13 10 21 22 20
22 22 23 23 23 23 23 22 22 22 21 21 21 19 18 20 19 5 7 11 16 19 19 16 14 15 17 17 16 15 9 10 9 7 15 11 13 10 13 12 16 17 22 23 21
22 22 23 24 25 25 24 24 23 23 21 20 19 18 18 11 8 12 11 12 18 22 20 17 18 18 17 17 14 16 13 7 9 6 11 12 14 11 10 13 16 17 22 22 20
22 22 23 24 25 25 25 23 24 24 22 20 17 15 12 11 19 15 16 10 16 19 20 19 21 20 20 18 17 14 8 4 6 8 12 14 11 14 9 8 16 17 22 22 20
22 22 23 23 24 25 25 24 24 25 23 20 15 10 9 19 16 18 12 16 17 21 21 21 19 20 18 20 17 11 12 1 4 12 9 10 14 12 14 9 17 18 22 21 21
23 22 23 24 26 26 27 26 27 26 23 17 11 10 13 20 6 8 12 13 13 19 21 22 23 21 20 19 18 15 5 9 8 13 12 11 16 14 17 13 17 18 19 20 19
23 24 24 26 27 27 26 28 28 25 17 10 10 10 11 8 12 18 15 16 14 14 18 17 21 22 20 20 16 15 15 14 16 13 12 18 18 18 18 16 18 19 18 18 19
22 24 25 27 28 29 28 29 26 14 7 5 11 11 18 5 13 16 17 19 17 16 16 16 19 23 19 20 15 18 16 20 16 15 14 18 14 18 20 16 17 17 18 17 18
21 23 25 27 28 30 32 31 6 6 9 10 10 9 13 14 11 9 11 16 16 16 15 20 16 19 20 19 17 21 21 20 19 17 12 14 7 18 16 18 17 17 18 18 18
22 23 26 28 29 30 21 5 8 10 14 16 7 15 10 6 6 11 12 17 18 18 19 22 20 25 27 25 22 22 20 11 15 24 19 17 13 13 16 15 17 20 19 20 20
23 23 26 29 31 29 14 10 7 8 15 20 25 26 22 7 10 15 16 18 19 19 23 20 25 26 25 26 26 27 21 18 14 20 19 18 18 15 20 15 16 18 21 20 21
22 23 24 31 33 16 13 9 6 13 11 17 25 25 25 23 21 17 20 22 21 24 26 24 24 27 28 26 27 26 25 17 16 20 17 18 19 18 17 18 17 17 18 22 21
22 23 22 30 15 15 6 6 8 10 10 13 10 11 20 19 22 25 23 23 19 24 24 26 21 27 28 30 27 25 24 19 18 16 13 19 14 21 20 21 20 19 19 20 23
23 23 21 18 15 9 9 10 10 7 10 13 13 13 17 20 7 26 27 25 24 21 20 24 22 28 30 29 27 24 25 22 22 18 24 23 18 11 20 24 19 21 21 21 21
23 23 22 15 10 15 14 10 8 10 13 10 12 15 19 23 13 12 27 26 21 23 23 25 23 28 24 26 24 23 24 24 23 19 17 18 18 19 18 19 20 24 21 21 21
23 23 21 13 11 7 8 9 10 14 5 12 17 20 22 22 21 15 27 28 25 25 23 23 28 23 20 22 26 29 25 17 18 18 18 26 20 21 16 15 18 19 19 21 20
24 28 14 11 13 12 8 11 19 11 29 2 16 20 24 21 22 22 24 25 29 25 18 22 24 30 21 29 27 31 28 20 26 17 20 25 23 21 18 9 15 12 14 21 21
29 11 11 10 7 9 11 20 15 21 17 19 15 19 23 22 17 24 26 25 28 28 25 21 26 22 28 26 29 29 31 26 27 25 21 19 23 19 6 19 16 15 15 14 20
13 15 14 10 7 10 14 29 23 32 15 15 26 19 23 25 21 21 24 24 27 30 29 23 18 25 26 25 28 35 23 28 23 28 26 24 23 16 19 17 17 16 16 16 16
12 7 8 5 7 10 18 23 27 35 31 24 26 25 26 24 27 25 24 19 23 26 28 27 20 15 25 32 30 22 29 25 25 24 21 20 18 19 19 18 22 22 20 17 18
10 8 9 5 10 10 18 27 25 30 27 28 26 28 25 27 26 27 29 21 19 19 30 27 18 19 21 22 28 28 28 32 19 27 20 23 18 14 17 15 13 17 14 11 16
9 12 12 9 12 15 22 28 27 27 28 27 26 30 27 29 25 23 17 22 9 10 20 23 24 19 22 22 28 31 33 32 32 23 26 22 19 16 4 16 21 19 16 17 4
9 9 8 11 13 17 20 21 22 20 23 20 27 26 27 30 26 22 24 23 15 12 8 10 22 27 19 23 18 29 30 32 30 25 20 26 25 22 22 14 10 10 10 11 9
7 10 4 11 9 11 19 16 13 17 24 22 25 28 26 27 27 28 27 23 25 17 19 17 21 26 29 27 23 24 30 30 34 28 28 23 31 28 23 22 18 20 17 19 15
5 7 9 13 18 21 18 19 18 20 15 20 25 22 23 27 23 26 27 29 19 20 19 22 19 21 24 25 27 25 25 26 28 30 30 30 30 24 27 22 17 16 19 17 14
6 10 9 9 16 13 13 23 18 14 8 16 11 15 21 22 21 19 21 21 22 22 23 24 19 20 21 22 21 26 26 27 28 28 28 29 26 22 25 24 22 20 20 20 20
Wind_Direction
354 352 349 347 344 341 339 337 334 332 331 328 330 328 323 322 304 219 254 252 168 165 210 183 211 210 227 236 249 252 339 278 120 121 115 157 119 153 81 126 157 145 141 141 144
352 349 347 344 341 337 334 333 331 329 327 325 325 325 319 323 291 271 241 141 144 167 195 187 196 203 222 229 241 241 300 76 66 110 122 145 141 127 154 150 142 144 122 138 156
349 347 344 340 337 333 331 328 326 325 323 321 319 320 315 313 281 229 122 138 164 181 214 205 206 208 228 236 221 240 11 304 91 96 122 157 125 148 141 168 155 138 145 153 159
348 346 342 338 333 330 327 325 322 320 317 315 313 314 314 275 285 115 134 163 172 195 235 209 221 211 233 236 230 253 173 4 99 134 140 161 130 138 165 154 150 144 155 160 169
345 343 340 335 331 326 324 321 319 315 311 306 304 308 290 240 251 148 148 167 178 203 217 218 220 219 227 237 235 226 216 195 158 173 166 141 150 127 138 128 146 145 158 169 177
342 340 337 332 327 325 321 318 315 310 305 298 289 289 245 259 262 140 199 163 201 206 211 224 227 228 236 247 243 194 252 112 247 174 157 182 141 162 129 165 144 155 167 174 181
340 337 334 328 324 322 318 316 313 308 302 290 257 228 257 248 285 179 192 209 215 201 221 216 231 227 234 255 247 243 227 208 223 171 163 215 156 204 139 170 156 167 176 179 186
337 334 332 326 322 321 317 312 309 305 294 272 207 217 258 265 234 238 221 228 227 220 234 223 226 243 244 236 231 234 216 215 166 175 148 226 176 180 149 173 165 174 180 185 189
334 331 331 323 322 321 316 309 303 290 289 186 189 232 258 131 216 227 217 225 209 217 219 239 214 230 240 242 227 215 222 232 151 178 151 225 163 163 155 182 173 179 183 191 191
335 331 329 323 321 318 318 296 278 246 219 219 268 238 239 228 185 185 214 217 197 198 199 213 210 215 227 216 220 209 223 215 173 173 175 213 140 148 165 189 183 185 185 192 196
335 332 328 323 321 317 324 287 213 192 222 243 230 234 132 176 134 208 183 203 198 195 199 194 204 211 214 215 231 230 209 214 211 164 194 200 217 165 168 203 198 186 194 195 202
332 334 329 323 318 315 289 294 41 337 291 264 254 252 262 268 229 211 175 202 202 204 204 183 215 214 220 218 225 243 237 219 194 155 192 200 206 208 175 198 211 207 192 205 199
329 332 333 324 318 291 320 313 337 337 265 273 234 234 222 231 233 225 189 204 205 210 203 212 206 214 212 222 221 234 243 220 216 153 180 237 211 202 199 187 203 217 214 197 207
326 327 334 329 288 338 290 9 303 324 272 254 201 225 213 207 232 225 199 210 223 220 219 227 212 204 223 222 219 223 239 253 230 156 220 208 249 195 204 200 196 208 216 210 199
322 322 326 315 303 285 5 321 313 258 277 114 135 127 172 189 131 198 215 210 221 215 223 214 215 209 215 219 221 229 224 231 245 191 236 195 226 213 203 192 195 205 208 214 206
318 315 322 297 238 261 290 287 259 230 235 184 153 185 175 205 219 142 202 204 223 231 225 237 212 231 214 222 224 231 239 231 230 249 233 222 202 230 169 198 192 195 204 207 209
310 304 301 281 253 12 316 261 227 235 138 197 182 184 199 194 212 183 194 197 211 213 220 222 231 215 225 220 216 226 228 231 225 224 240 215 201 226 218 181 211 207 192 197 204
305 300 272 251 229 251 256 226 234 242 229 83 208 194 205 214 197 186 194 206 213 215 219 215 210 225 205 220 216 216 221 227 222 227 229 235 229 216 214 223 182 235 214 188 190
307 292 282 254 212 230 231 223 224 237 275 236 221 233 205 218 216 198 207 212 209 217 225 214 225 210 217 216 230 208 221 226 238 230 237 228 220 235 259 219 230 240 250 208 187
309 293 266 252 167 222 234 237 235 252 260 270 243 226 233 205 207 239 203 212 214 211 229 235 246 212 212 218 222 239 212 219 228 237 235 228 240 221 203 223 246 230 240 236 202
275 281 95 178 207 233 241 246 242 263 276 266 263 247 244 236 221 213 232 218 213 211 213 232 240 228 213 202 215 217 233 220 232 235 247 243 234 218 192 205 221 226 226 225 211
292 270 123 209 234 232 246 254 263 268 251 246 260 265 262 259 245 226 217 229 216 215 210 215 228 233 233 226 213 230 226 235 224 224 245 260 248 206 210 181 218 219 217 241 216
280 289 270 195 250 246 250 258 253 261 261 257 252 242 254 261 258 247 229 243 168 236 233 202 224 226 221 239 212 214 233 226 232 225 230 239 235 245 212 199 206 218 239 243 197
282 283 240 194 251 265 273 280 281 278 257 266 264 264 238 250 256 253 245 238 180 211 288 298 220 226 225 225 223 216 222 239 232 232 224 234 243 239 235 211 231 214 244 257 226
258 273 16 288 256 336 315 302 284 287 299 280 252 252 251 235 238 243 240 237 241 180 240 246 239 228 226 249 227 227 216 225 240 237 237 233 229 237 242 239 227 213 236 244 237
279 308 319 293 293 292 278 270 272 275 290 295 287 288 247 253 238 238 237 230 232 204 212 227 231 240 237 223 243 251 217 226 239 242 243 245 251 232 242 244 239 225 234 242 259
255 284 278 280 284 278 260 282 294 329 314 244 354 324 311 0 326 313 299 243 224 217 201 213 218 224 231 234 238 238 243 222 216 224 238 246 251 255 258 256 251 234 242 250 252